Weather History for Charlottesville, VA

Change the Weather History Date:

Tuesday, August 27, 2013

  Actual Average Record
Temperature  
Mean Temperature 76 °F 73 °F  
Max Temperature 87 °F 84 °F 98 °F (1943)
Min Temperature 65 °F 62 °F 50 °F (1942)
Degree Days  
Heating Degree Days 0 0  
Month to date heating degree days 5 0  
Since 1 June heating degree days 7 12  
Since 1 July heating degree days 5 1  
Cooling Degree Days 11 8  
Month to date cooling degree days 193 250  
Year to date cooling degree days 960 880  
Since 1 June cooling degree days 813 794  
Growing Degree Days 26 (Base 50)    
Moisture  
Dew Point 67 °F    
Average Humidity 74    
Maximum Humidity 93    
Minimum Humidity 55    
Precipitation  
Precipitation 0.02 in 0.10 in 1.48 in (2008)
Month to date precipitation 5.20 3.27  
Year to date precipitation 32.60 27.79  
Sea Level Pressure  
Sea Level Pressure 29.97 in    
Wind  
Wind Speed 2 mph (SW)    
Max Wind Speed 7 mph    
Max Gust Speed 10 mph    
Visibility 8 miles    
Events Rain    
T = Trace of Precipitation, MM = Missing Value Source: NWS Daily Summary

Daily Weather History Graph

Daily Weather History Graph

Search for Another Location

Airport:

Trip Planner

Search our weather history database for the weather conditions in past years. The results will help you decide how hot, cold, wet, or windy it might be!

Date:

Astronomy

Aug. 27, 2013 Rise Set
Actual Time 6:39 AM EDT 7:50 PM EDT
Civil Twilight 6:12 AM EDT 8:17 PM EDT
Nautical Twilight 5:39 AM EDT 8:50 PM EDT
Astronomical Twilight 5:05 AM EDT 9:23 PM EDT
Moon 11:49 PM EDT (8/27) 1:28 PM EDT (8/27)
Length of Visible Light 14h 05m
Length of Day
13h 11m
Waning Gibbous, 57% of the Moon is Illuminated
Aug 27
Waning Gibbous
Aug 28
Last Quarter
Sep 5
New
Sep 12
First Quarter
Sep 19
Full

Hourly Weather History & Observations

Time (EDT) Temp. Heat Index Dew Point Humidity Pressure Visibility Wind Dir Wind Speed Gust Speed Precip Events Conditions
12:53 AM 66.9 °F - 63.0 °F 87% 30.04 in 10.0 mi Calm Calm - N/A   Clear
1:53 AM 68.0 °F - 62.1 °F 81% 30.01 in 10.0 mi SW 3.5 mph - N/A   Clear
2:53 AM 69.1 °F - 61.0 °F 75% 30.00 in 10.0 mi SSW 5.8 mph - N/A   Clear
3:53 AM 66.9 °F - 62.1 °F 84% 29.99 in 10.0 mi Calm Calm - N/A   Clear
4:53 AM 66.9 °F - 62.1 °F 84% 29.99 in 10.0 mi Calm Calm - N/A   Clear
5:53 AM 66.9 °F - 62.1 °F 84% 29.99 in 10.0 mi Calm Calm - N/A   Clear
6:53 AM 64.9 °F - 62.1 °F 90% 30.00 in 10.0 mi Calm Calm - N/A   Partly Cloudy
7:53 AM 68.0 °F - 64.0 °F 87% 30.00 in 9.0 mi Calm Calm - N/A   Partly Cloudy
8:53 AM 70.0 °F - 64.9 °F 84% 30.00 in 10.0 mi Calm Calm - N/A   Clear
9:53 AM 77.0 °F - 66.9 °F 71% 29.99 in 9.0 mi SSW 4.6 mph - N/A   Clear
10:53 AM 80.1 °F 82.7 °F 68.0 °F 67% 29.99 in 6.0 mi Variable 3.5 mph - N/A   Haze
11:53 AM 82.9 °F 85.4 °F 66.9 °F 58% 29.98 in 8.0 mi Calm Calm - N/A   Haze
12:53 PM 84.0 °F 87.8 °F 69.1 °F 61% 29.97 in 7.0 mi Calm Calm - N/A   Haze
1:53 PM 86.0 °F 90.7 °F 70.0 °F 59% 29.95 in 8.0 mi Variable 3.5 mph - N/A   Haze
2:53 PM 87.1 °F 91.3 °F 69.1 °F 55% 29.93 in 8.0 mi Calm Calm - N/A   Haze
3:53 PM 84.9 °F 90.7 °F 72.0 °F 65% 29.93 in 7.0 mi Calm Calm - N/A   Haze
4:53 PM 84.0 °F 88.4 °F 70.0 °F 63% 29.93 in 6.0 mi NNW 4.6 mph - 0.00 in   Haze
5:47 PM 78.8 °F - 71.6 °F 78% 29.94 in 1.8 mi Calm Calm - 0.02 in Rain Heavy Rain
5:53 PM 78.1 °F - 70.0 °F 76% 29.92 in 1.8 mi Calm Calm - 0.02 in Rain Light Rain
5:55 PM 77.0 °F - 69.8 °F 78% 29.94 in 3.0 mi Calm Calm - 0.00 in Rain Light Rain
6:53 PM 77.0 °F - 69.1 °F 76% 29.92 in 7.0 mi NW 3.5 mph - 0.00 in   Scattered Clouds
7:53 PM 75.0 °F - 70.0 °F 84% 29.93 in 6.0 mi South 3.5 mph - N/A   Haze
8:53 PM 78.1 °F - 66.9 °F 68% 29.94 in 9.0 mi Calm Calm - N/A   Clear
9:53 PM 75.9 °F - 69.1 °F 79% 29.94 in 8.0 mi Calm Calm - N/A   Scattered Clouds
10:53 PM 73.9 °F - 69.1 °F 85% 29.94 in 7.0 mi SW 3.5 mph - N/A   Mostly Cloudy
11:53 PM 73.9 °F - 66.9 °F 79% 29.94 in 8.0 mi SW 3.5 mph - N/A   Partly Cloudy